Weather History for Defiance, OH

Change the Weather History Date:

Saturday, October 15, 2011

  Actual Average Record
Temperature  
Mean Temperature 54 °F -  
Max Temperature 62 °F 65 °F 86 °F (1947)
Min Temperature 48 °F 42 °F 25 °F (1939)
Degree Days  
Heating Degree Days 10    
Growing Degree Days 4 (Base 50)    
Moisture  
Dew Point 36 °F    
Average Humidity 56    
Maximum Humidity 80    
Minimum Humidity 30    
Precipitation  
Precipitation 0.00 in - - ()
Sea Level Pressure  
Sea Level Pressure 29.74 in    
Wind  
Wind Speed 10 mph (WSW)    
Max Wind Speed 20 mph    
Max Gust Speed 33 mph    
Visibility 10 miles    
Events      
Averages and records for this station are not official NWS values.
T = Trace of Precipitation, MM = Missing Value Source: NWS Daily Summary

Daily Weather History Graph

Daily Weather History Graph

Search for Another Location

Airport:

Trip Planner

Search our weather history database for the weather conditions in past years. The results will help you decide how hot, cold, wet, or windy it might be!

Date:

Astronomy

Oct. 15, 2011 Rise Set
Actual Time 7:49 AM EDT 6:57 PM EDT
Civil Twilight 7:21 AM EDT 7:24 PM EDT
Nautical Twilight 6:49 AM EDT 7:57 PM EDT
Astronomical Twilight 6:17 AM EDT 8:28 PM EDT
Moon 8:50 PM EDT (10/15) 11:15 AM EDT (10/15)
Length of Visible Light 12h 03m
Length of Day
11h 07m
Waning Gibbous, 89% of the Moon is Illuminated
Oct 15
Waning Gibbous
Oct 19
Last Quarter
Oct 26
New
Nov 2
First Quarter
Nov 10
Full

Hourly Weather History & Observations

Time (EDT) Temp. Dew Point Humidity Pressure Visibility Wind Dir Wind Speed Gust Speed Precip Events Conditions
1:53 AM 48.9 °F 43.0 °F 80% 29.63 in 10.0 mi WSW 9.2 mph - 0.00 in   Overcast
2:53 AM 50.0 °F 41.0 °F 71% 29.62 in 10.0 mi WSW 8.1 mph - N/A   Overcast
3:53 AM 48.9 °F 42.1 °F 77% 29.63 in 10.0 mi SW 9.2 mph - 0.00 in   Scattered Clouds
4:53 AM 48.0 °F 39.9 °F 74% 29.63 in 10.0 mi SW 8.1 mph - N/A   Partly Cloudy
5:53 AM 48.0 °F 39.0 °F 71% 29.64 in 10.0 mi SW 9.2 mph 18.4 mph N/A   Scattered Clouds
6:53 AM 48.0 °F 39.9 °F 74% 29.65 in 10.0 mi WSW 9.2 mph 20.7 mph N/A   Overcast
7:53 AM 48.9 °F 39.9 °F 71% 29.65 in 10.0 mi WSW 9.2 mph 21.9 mph N/A   Overcast
10:53 AM 53.1 °F 39.0 °F 59% 29.72 in 10.0 mi West 10.4 mph 21.9 mph N/A   Overcast
11:53 AM 54.0 °F 39.0 °F 57% 29.73 in 10.0 mi WSW 11.5 mph 27.6 mph N/A   Mostly Cloudy
1:53 PM 57.9 °F 37.0 °F 46% 29.75 in 10.0 mi WSW 15.0 mph 28.8 mph N/A   Mostly Cloudy
2:53 PM 60.1 °F 35.1 °F 39% 29.75 in 10.0 mi West 19.6 mph 33.4 mph N/A   Partly Cloudy
3:53 PM 61.0 °F 30.9 °F 32% 29.77 in 10.0 mi West 12.7 mph 26.5 mph N/A   Clear
4:53 PM 61.0 °F 28.9 °F 30% 29.78 in 10.0 mi WNW 9.2 mph 24.2 mph N/A   Clear
5:53 PM 60.1 °F 30.9 °F 33% 29.80 in 10.0 mi WNW 12.7 mph 25.3 mph N/A   Clear
6:53 PM 57.9 °F 30.9 °F 36% 29.82 in 10.0 mi West 10.4 mph 17.3 mph N/A   Clear
7:53 PM 55.9 °F 33.1 °F 42% 29.85 in 10.0 mi WSW 8.1 mph - N/A   Clear
8:53 PM 53.1 °F 34.0 °F 48% 29.86 in 10.0 mi WSW 4.6 mph - N/A   Clear
9:53 PM 50.0 °F 35.1 °F 57% 29.86 in 10.0 mi SW 5.8 mph - N/A   Clear
10:53 PM 51.1 °F 35.1 °F 54% 29.86 in 10.0 mi WSW 5.8 mph - N/A   Clear
11:53 PM 48.9 °F 36.0 °F 61% 29.88 in 10.0 mi SW 5.8 mph - N/A   Clear